This is the latest recevied weather packets stored in our database for station/object K7SKM. If no packets are shown the sender has not sent any weather packets the latest 10 day(s).
| Time | Temp. | Humidity | Pressure | Rain* | Wind** | Luminosity | Snow |
|---|---|---|---|---|---|---|---|
| 1788368832 | 17.78° C | 69% | 1010.6 hPa | 0 mm | - | 60 W/m² | - |
| 1788368528 | 17.78° C | 70% | 1010.5 hPa | 0 mm | - | 55 W/m² | - |
| 1788368222 | 17.78° C | 71% | 1010.8 hPa | 0 mm | - | 51 W/m² | - |
| 1788367916 | 17.78° C | 72% | 1010.8 hPa | 0 mm | - | 57 W/m² | - |
| 1788367612 | 17.78° C | 72% | 1010.8 hPa | 0 mm | - | 59 W/m² | - |
| 1788367310 | 17.22° C | 71% | 1010.9 hPa | 0 mm | - | 64 W/m² | - |
| 1788367006 | 17.22° C | 73% | 1011 hPa | 0 mm | - | 52 W/m² | - |
| 1788366705 | 17.22° C | 73% | 1011 hPa | 0 mm | - | 39 W/m² | - |
| 1788366404 | 17.22° C | 73% | 1011.1 hPa | 0 mm | - | 30 W/m² | - |
| 1788366098 | 17.22° C | 72% | 1011 hPa | 0 mm | - | 36 W/m² | - |
| 1788365794 | 17.22° C | 72% | 1011 hPa | 0 mm | - | 49 W/m² | - |
| 1788365490 | 17.78° C | 71% | 1011 hPa | 0 mm | - | 70 W/m² | - |
| 1788365186 | 17.78° C | 71% | 1011 hPa | 0 mm | - | 79 W/m² | - |
| 1788364881 | 17.22° C | 72% | 1011.1 hPa | 0 mm | - | 80 W/m² | - |
| 1788364579 | 17.78° C | 70% | 1011.2 hPa | 0 mm | - | 85 W/m² | - |
| 1788364278 | 17.78° C | 73% | 1011.1 hPa | 0 mm | - | 111 W/m² | - |
| 1788363973 | 17.22° C | 76% | 1011.2 hPa | 0 mm | - | 105 W/m² | - |
| 1788363668 | 16.67° C | 77% | 1011.2 hPa | 0 mm | - | 91 W/m² | - |
| 1788363367 | 16.11° C | 78% | 1011.3 hPa | 0 mm | - | 73 W/m² | - |
| 1788363062 | 16.11° C | 79% | 1011.3 hPa | 0 mm | - | 76 W/m² | - |
| 1788362759 | 15.56° C | 81% | 1011.4 hPa | 0 mm | - | 82 W/m² | - |
| 1788362454 | 15.56° C | 82% | 1011.6 hPa | 0 mm | - | 69 W/m² | - |
| 1788362150 | 15° C | 82% | 1011.8 hPa | 0 mm | - | 76 W/m² | - |
| 1788361853 | 15° C | 84% | 1011.7 hPa | 0 mm | - | 81 W/m² | - |
| 1788361544 | 15° C | 87% | 1011.8 hPa | 0 mm | - | 80 W/m² | - |
* Rain latest hour (hover to see other rain measurements)
** Current wind speed in m/s (hover to see current wind gust speed)